Dewpoint
53 50 41 34 25 27 26 26 29 27 44 52 52 51 52 53 51 47 59 62 66 66 67 68 69 70 70 70 69 69 69 68 68 67 67 66 66 65 65 65 64 64 64 64 63 63 62 62 61
39 37 37 31 23 21 21 25 25 35 48 53 53 53 53 52 55 57 59 62 65 64 65 66 68 68 68 68 68 67 67 67 66 65 64 64 63 63 62 61 61 60 60 60 60 60 59 58 58
43 35 30 26 21 20 21 26 41 43 51 50 51 51 53 53 56 57 59 61 63 62 63 65 66 67 66 66 65 64 64 64 63 63 62 61 60 60 60 59 58 58 58 58 58 57 57 56 56
32 28 25 17 15 20 23 24 24 23 47 50 50 50 55 57 57 57 60 61 61 61 62 64 65 65 64 63 63 63 62 62 61 61 60 59 59 58 57 57 56 56 56 55 55 54 54 54 54
29 25 21 19 16 17 17 18 19 26 45 48 49 50 53 56 58 58 59 60 59 60 61 61 64 63 62 62 62 61 60 59 59 58 58 58 57 55 54 54 54 54 53 53 52 52 52 53 54
25 23 17 15 16 17 18 19 18 29 48 49 49 51 54 57 57 59 59 59 59 59 60 60 62 61 61 60 60 59 58 57 56 55 55 55 54 52 52 52 51 52 51 50 50 50 51 52 52
23 21 19 19 19 18 18 18 16 46 48 48 49 50 54 56 57 58 57 58 58 58 58 59 59 59 59 58 57 56 55 55 55 54 53 53 52 50 50 51 50 50 49 49 49 50 51 50 50
22 21 19 19 19 18 19 20 35 42 46 49 50 50 52 55 56 56 56 55 56 56 55 56 55 54 54 53 54 53 53 53 52 52 53 52 52 50 49 49 48 48 49 48 49 50 50 49 49
20 17 16 17 18 19 19 15 37 43 44 48 49 50 52 55 53 53 53 53 54 55 54 53 52 51 50 50 52 53 53 53 53 52 51 47 43 44 44 47 49 48 48 48 49 49 48 48 47
24 17 16 17 18 18 18 16 20 40 46 47 50 53 54 52 52 51 51 51 53 53 52 52 50 49 48 50 49 48 49 46 46 46 46 45 44 48 47 48 48 47 48 47 48 46 46 44 42
25 23 22 20 18 19 17 12 15 40 42 47 48 51 52 51 51 50 50 50 52 53 52 52 49 47 48 49 48 47 46 45 44 44 45 43 43 43 42 42 41 41 45 41 42 41 41 40 41
28 29 26 25 22 22 12 13 13 29 35 45 50 50 50 49 49 49 49 49 49 50 51 52 50 48 48 49 49 46 45 44 43 43 44 42 42 41 41 40 39 40 41 40 40 40 40 40 40
30 28 26 23 22 18 14 12 13 17 40 48 49 49 48 48 48 48 47 48 48 49 49 50 49 48 47 47 45 44 45 43 43 42 43 42 41 41 40 39 39 39 40 39 39 39 39 39 40
35 30 30 28 22 18 17 14 14 30 48 47 48 47 47 47 47 47 46 46 48 48 48 48 47 45 44 42 42 43 43 43 42 41 41 41 40 40 40 38 38 38 39 39 39 39 39 39 39
32 30 30 29 23 17 19 15 13 34 47 46 46 46 47 47 47 46 46 45 47 47 48 47 46 45 43 43 41 42 42 42 42 40 40 40 39 39 39 38 37 38 39 39 38 38 38 38 38
29 31 27 28 27 25 18 18 17 34 46 46 46 46 46 46 46 46 45 45 45 46 46 46 46 45 43 42 41 42 42 41 41 40 39 39 39 39 38 37 37 39 39 38 38 37 37 37 36
31 28 28 28 28 27 18 18 18 18 44 44 44 44 45 45 46 45 44 44 44 45 45 46 45 43 43 40 41 41 41 40 40 39 38 37 38 38 37 37 37 39 38 38 36 35 36 35 34
31 28 28 27 28 28 26 22 21 15 21 41 44 43 43 44 45 44 42 42 44 44 45 45 43 43 42 41 40 39 38 38 38 37 37 36 38 37 37 36 36 37 36 35 35 34 34 34 33
32 29 28 28 28 27 25 25 24 23 16 18 41 42 42 43 44 42 41 42 43 43 43 43 43 43 40 39 37 36 35 36 36 35 35 35 36 36 35 36 36 36 35 34 34 34 33 32 32
34 31 30 30 31 29 28 27 27 25 19 19 31 40 41 41 42 40 41 42 43 43 43 43 42 40 38 37 35 36 35 35 34 34 34 34 34 35 34 35 35 34 34 34 33 33 31 30 31
35 34 33 32 32 32 28 28 27 26 26 23 23 35 39 40 40 39 40 41 42 42 42 42 41 39 39 38 37 35 35 35 33 32 31 31 32 33 34 33 34 34 33 33 32 32 30 28 29
33 35 33 32 31 29 28 26 27 26 25 26 22 24 33 38 40 39 40 41 41 41 42 42 41 39 39 39 35 32 32 32 32 31 30 30 30 31 32 31 32 32 31 31 32 31 30 29 27
34 36 35 34 31 30 28 27 27 28 27 28 29 25 30 38 40 39 39 40 41 41 41 41 41 39 39 36 33 31 31 31 32 31 29 29 29 30 30 29 29 29 30 30 29 29 28 30 28
36 34 33 34 35 32 32 27 27 27 28 30 31 33 30 38 40 39 39 40 39 40 41 41 40 39 36 34 32 31 30 30 30 30 29 29 30 30 29 29 28 28 29 29 28 29 28 28 27
36 31 28 28 32 30 30 29 27 31 33 33 33 33 32 36 39 39 38 39 39 40 40 40 37 35 35 34 33 32 29 29 29 29 29 29 29 28 27 27 27 27 29 29 28 28 28 27 26
35 34 29 26 27 28 32 29 30 32 33 33 35 37 35 35 39 38 39 39 39 39 39 36 34 33 34 35 32 29 28 29 30 30 30 30 28 28 27 28 28 28 28 27 27 27 27 26 25
34 31 33 32 31 29 29 30 32 35 35 35 34 36 37 38 38 38 39 39 39 39 39 35 33 32 34 33 31 30 30 30 30 30 30 30 30 28 28 28 27 27 26 26 26 25 25 25 25
33 38 34 35 29 28 30 30 29 32 34 35 35 35 37 37 38 38 39 39 39 41 37 35 34 33 33 31 30 29 30 30 29 30 29 29 29 28 28 27 26 26 25 25 25 25 25 24 24
33 36 39 38 34 29 28 30 32 32 35 34 36 40 37 37 38 39 40 40 40 39 36 36 33 33 32 30 30 29 30 30 29 29 29 29 28 27 27 27 26 26 25 24 24 24 24 23 22
38 37 37 32 31 34 30 30 33 35 34 30 30 37 41 40 40 40 39 41 40 38 35 35 35 35 33 31 30 30 31 30 29 29 28 29 28 28 27 27 26 26 26 25 25 24 24 22 21
Lifted_Index
11 11 10 8 6 3 2 2 2 1 -1 -3 -3 -3 -3 -3 -2 -2 -1 -1 -1 -1 -2 -2 -2 -3 -3 -3 -3 -3 -2 -2 -2 -2 -2 -2 -2 -1 -1 -0 1 1 1 2 3 3 4 4 4
11 10 10 8 5 3 2 2 1 -0 -1 -3 -3 -3 -2 -2 -2 -1 -1 -1 -1 -1 -2 -2 -2 -2 -2 -2 -2 -2 -2 -1 -1 -0 -0 0 0 1 1 2 3 3 3 4 4 5 5 6 6
10 10 9 7 4 2 2 2 2 0 -1 -3 -3 -3 -2 -2 -1 -1 -1 -1 -1 -1 -2 -1 -1 -2 -1 -1 -1 -1 -1 0 1 2 2 3 3 4 4 5 5 6 6 6 6 7 8 8 9
10 10 8 6 4 3 3 3 3 2 -0 -2 -2 -2 -1 -1 -1 -0 -0 -1 -1 -1 -2 -2 -2 -2 -2 -1 -1 -0 1 2 3 3 4 4 5 6 6 7 7 8 8 8 8 9 9 9 9
9 9 7 5 3 4 4 4 4 3 1 -2 -2 -1 -1 -0 -0 0 -0 -1 -1 -2 -2 -2 -2 -2 -1 -0 1 2 3 4 5 5 6 6 7 8 8 9 9 9 10 10 10 10 10 10 10
8 8 6 4 3 4 4 4 4 3 0 -2 -2 -1 -1 -0 -0 -0 -0 -1 -1 -2 -2 -2 -2 -1 1 3 4 5 6 6 7 7 7 8 9 9 10 10 10 10 11 11 11 11 11 10 10
8 8 6 4 3 3 4 4 3 1 -0 -2 -2 -1 -1 -1 -0 -0 -0 -1 -1 -2 -2 -2 -1 0 3 5 7 7 8 8 9 9 9 9 10 10 11 11 11 11 11 11 11 11 11 12 12
8 7 6 4 3 4 5 5 2 0 -1 -1 -1 -1 -1 -1 -0 -0 -0 -1 -1 -2 -2 -1 -0 2 5 8 9 9 9 9 10 9 10 10 11 11 11 12 12 12 12 12 12 12 12 13 13
8 7 5 4 4 5 5 5 3 1 0 0 0 -0 -0 -0 0 0 -0 -1 -2 -2 -1 0 2 4 8 9 10 10 10 10 10 10 11 11 12 12 12 12 12 12 13 13 13 13 14 14 15
7 6 5 5 6 6 6 6 4 2 1 1 0 0 0 0 0 0 -0 -1 -2 -2 -1 1 4 7 9 11 11 11 11 11 12 12 12 12 12 12 12 12 13 13 14 14 14 14 15 16 16
6 6 6 5 6 6 6 6 5 3 2 2 1 1 1 1 1 1 -0 -1 -1 -2 -1 2 5 8 10 11 11 12 12 12 12 12 12 12 12 12 13 13 14 14 15 15 15 16 16 16 16
6 6 5 5 5 6 6 6 5 4 4 3 2 2 1 1 2 1 1 -0 -1 -1 -1 2 5 8 10 11 11 12 12 12 12 13 13 13 13 13 13 14 15 15 15 16 16 16 16 17 17
5 5 5 5 5 5 6 6 6 5 4 3 3 3 2 2 2 2 2 1 0 0 0 2 5 8 10 11 11 11 12 12 13 13 13 13 13 13 14 14 15 15 16 16 16 16 16 17 17
5 5 5 5 5 5 5 6 6 5 4 3 3 3 2 2 3 3 3 2 2 1 1 3 6 9 10 10 10 11 11 12 13 13 14 14 14 14 14 15 15 15 16 16 16 16 16 17 17
4 5 5 5 5 4 5 5 5 5 4 4 3 3 3 2 3 3 3 3 3 2 3 4 7 9 10 10 10 10 11 12 12 13 14 14 14 14 15 15 15 15 16 16 16 16 16 17 17
4 5 5 4 4 4 4 5 5 5 4 4 4 3 3 3 3 4 4 4 4 4 4 5 8 9 10 10 10 11 11 12 12 13 14 14 14 14 15 15 15 15 16 16 16 16 16 16 16
4 4 4 4 4 4 4 4 4 4 4 4 4 4 3 3 4 4 4 4 4 4 4 5 7 9 10 10 11 11 11 11 12 13 13 14 14 14 14 14 15 15 15 16 16 16 15 15 15
4 4 5 4 4 3 3 4 4 4 4 4 4 4 4 4 4 4 4 4 4 3 4 4 6 8 9 10 11 11 11 11 12 13 13 14 14 14 14 14 14 14 15 15 15 15 15 14 14
4 5 5 5 3 3 3 3 3 3 3 4 4 4 4 4 4 4 4 3 3 3 3 4 5 7 9 10 10 11 11 11 12 13 13 13 13 14 14 14 14 14 14 14 15 15 14 14 14
4 4 4 4 3 2 2 3 3 2 3 3 4 4 4 4 4 4 3 3 2 2 2 3 4 6 8 10 10 10 11 11 12 12 12 13 13 14 14 14 14 14 14 14 14 14 14 14 14
4 3 3 3 2 2 2 3 3 2 2 2 3 3 3 3 4 4 3 3 2 2 2 3 4 5 8 10 10 10 10 11 11 11 11 12 13 14 14 14 15 15 14 14 14 14 14 14 14
4 3 2 2 2 2 2 2 3 3 2 1 1 2 2 3 3 4 3 2 2 2 2 3 4 6 8 10 10 10 10 10 10 10 10 11 12 13 14 15 15 14 14 14 14 15 14 14 14
3 2 2 1 1 2 2 1 2 3 2 1 1 1 1 2 3 3 3 2 2 2 2 4 5 6 8 9 10 9 9 9 10 10 10 10 11 13 14 14 14 14 14 14 14 15 15 14 14
2 2 1 1 0 1 1 1 2 3 3 2 1 1 1 2 2 2 3 2 2 2 3 4 5 6 7 9 9 9 9 10 9 9 9 9 10 11 12 14 14 14 14 15 15 15 15 14 14
1 1 0 0 0 1 1 1 2 3 3 2 2 1 1 1 2 2 2 2 2 2 3 4 5 6 7 8 9 9 10 10 9 9 9 9 9 10 11 13 14 15 15 15 15 15 15 15 15
0 0 -0 -0 0 1 1 2 3 3 2 3 3 2 2 2 2 2 2 2 1 1 2 3 4 5 6 8 9 9 10 10 10 9 9 9 9 10 12 13 14 15 15 15 15 15 15 15 15
1 0 -0 -0 -0 0 1 2 2 2 2 3 3 3 3 2 2 2 2 2 1 1 2 3 4 5 5 7 8 9 9 10 9 9 9 9 9 10 12 14 15 15 15 15 15 15 15 15 15
1 0 -0 -0 -0 0 1 2 2 2 2 2 2 3 3 3 2 2 1 1 1 2 2 3 4 4 5 6 8 9 9 9 9 9 9 9 10 11 13 14 14 15 15 15 15 15 15 15 15
-0 -0 -1 -1 -0 -0 0 1 2 2 2 2 2 3 3 3 2 2 2 1 2 2 2 3 3 4 4 5 7 8 9 9 9 9 9 10 10 12 13 14 14 15 15 15 15 15 14 15 15
-0 -1 -1 -1 -1 -0 -0 1 2 2 2 2 2 3 3 2 2 2 2 2 2 2 2 2 3 3 3 5 6 8 9 9 9 9 9 10 11 12 13 14 15 15 15 15 15 14 14 14 14